Location: Milton Keynes
(52.0316°N, 0.7531°W)
Time: 17:33:33
(UTC+00:00)

OTV 5 (USA 277) - Pass Details

Date: 01 February 2019
Orbit: 342 x 346 km, 54.5° (Epoch: 17 February)

Event Time Altitude Azimuth Distance (km) Brightness Sun altitude
Exits shadow 04:35:41 10° 89° (E) 1,282 ? -28.9°
Drops below altitude 10° 04:35:42 10° 89° (E) 1,288 ? -28.9°
Sets 04:37:59 0° 73° (ENE) 2,141 ? -28.6°
